Location: Whispering Pines Observatory
(39.4020°N, 104.7430°W)
Time: 17:54:32
(UTC-06:00)

MOS 1 Rocket - Visible Passes

Search period start: 24 April 2014 00:00
Search period end: 04 May 2014 00:00
Orbit: 617 x 834 km, 97.5° (Epoch: 23 April)

Date Brightness Start Highest point End Pass type
(mag) Time Alt. Az. Time Alt. Az. Time Alt. Az.
24 Apr 4.2 22:53:13 48° NNE 22:53:13 48° NNE 22:57:03 10° N visible
25 Apr 6.2 00:32:35 10° WNW 00:32:35 10° WNW 00:32:48 10° WNW visible
25 Apr 4.9 22:04:21 24° ENE 22:04:21 24° ENE 22:08:10 10° NNE visible
25 Apr 5.1 23:43:43 29° WNW 23:43:43 29° WNW 23:46:51 10° NNW visible
26 Apr 4.0 22:54:52 54° N 22:54:52 54° N 22:58:59 10° N visible
27 Apr 6.2 00:34:14 10° WNW 00:34:14 10° WNW 00:34:27 10° WNW visible
27 Apr 4.8 22:06:01 26° ENE 22:06:01 26° ENE 22:10:10 10° NNE visible
27 Apr 5.1 23:45:23 30° WNW 23:45:23 30° WNW 23:48:43 10° NNW visible
28 Apr 3.9 22:56:32 60° N 22:56:32 60° N 23:00:54 10° N visible
29 Apr 6.2 00:35:54 10° WNW 00:35:54 10° WNW 00:36:02 10° WNW visible
29 Apr 4.7 22:07:40 28° ENE 22:07:43 28° ENE 22:12:09 10° N visible
29 Apr 5.0 23:47:03 30° WNW 23:47:03 30° WNW 23:50:35 10° NNW visible
30 Apr 5.7 21:19:18 10° ENE 21:20:11 10° ENE 21:21:05 10° NE visible
30 Apr 3.7 22:58:11 67° N 22:58:11 67° N 23:02:49 10° N visible
01 May 4.6 22:09:21 30° ENE 22:09:33 30° ENE 22:14:07 10° N visible
01 May 5.0 23:48:43 30° WNW 23:48:43 30° WNW 23:52:26 10° NNW visible
02 May 5.6 21:20:30 10° ENE 21:22:00 11° ENE 21:23:34 10° NE visible
02 May 3.6 22:59:52 74° N 22:59:52 74° N 23:04:43 10° N visible
03 May 4.5 22:11:01 31° ENE 22:11:23 32° ENE 22:16:05 10° N visible
03 May 5.0 23:50:23 29° WNW 23:50:23 29° WNW 23:54:17 10° NNW visible
